Location: Unspecified
(36.8670°S, 0.0000°E)
Time: 05:02:10
(UTC+00:00)

CZ-6A DEB - Visible Passes

Search period start: 04 April 2026 00:00
Search period end: 14 April 2026 00:00
Orbit: 772 x 846 km, 89.0° (Epoch: 28 March)

Date Brightness Start Highest point End Pass type
(mag) Time Alt. Az. Time Alt. Az. Time Alt. Az.
4 Apr ? 04:55:27 10° SSE 04:59:58 25° E 05:04:23 10° NE visible
4 Apr ? 19:39:49 10° W 19:40:39 10° WSW 19:41:30 10° WSW visible
5 Apr ? 04:32:08 10° SE 04:35:31 16° E 04:38:50 10° ENE visible
5 Apr ? 19:12:39 10° WNW 19:16:08 17° W 19:19:40 10° SW visible
6 Apr ? 05:47:12 10° S 05:52:44 84° W 05:58:06 10° N visible
6 Apr ? 18:47:07 10° NW 18:51:40 26° W 18:56:18 10° SSW visible
7 Apr ? 05:22:59 10° S 05:28:29 63° E 05:33:46 10° N visible
7 Apr ? 18:22:07 10° NNW 18:27:16 39° W 18:32:32 10° SSW visible
8 Apr ? 04:58:59 10° SSE 05:04:08 40° E 05:09:08 10° NNE visible
8 Apr ? 17:57:28 10° N 18:02:55 61° W 18:08:30 10° S visible
9 Apr ? 04:35:11 10° SSE 04:39:43 26° E 04:44:08 10° NE visible
10 Apr ? 04:11:47 10° SE 04:15:13 17° E 04:18:34 10° ENE visible
10 Apr ? 05:51:17 10° S 05:56:35 52° W 06:01:44 10° NNW visible
10 Apr ? 18:52:26 10° WNW 18:55:50 16° W 18:59:16 10° SW visible
11 Apr ? 03:50:08 10° ESE 03:50:38 10° ESE 03:51:07 10° E visible
11 Apr ? 05:26:52 10° S 05:32:22 82° W 05:37:41 10° N visible
11 Apr ? 18:26:49 10° NW 18:31:19 25° W 18:35:54 10° SSW visible
12 Apr ? 05:02:37 10° S 05:08:04 65° E 05:13:19 10° N visible
12 Apr ? 18:01:44 10° NNW 18:06:52 38° W 18:12:06 10° SSW visible
13 Apr ? 04:38:33 10° SSE 04:43:41 41° E 04:48:39 10° NNE visible
